Location: Claremont
(33.9858°S, 18.4575°E)
Time: 02:14:17
(UTC+00:00)

Okean-O - Pass Details

Date: 03 March 2021
Orbit: 639 x 640 km, 98.2° (Epoch: 21 April)

Event Time Altitude Azimuth Distance (km) Brightness Sun altitude
Rises 17:59:39 0° 161° (SSE) 2,977 6.0 -8.9°
Reaches altitude 10° 18:01:57 10° 155° (SSE) 2,060 5.1 -9.4°
Maximum altitude 18:06:17 47° 80° (E) 858 2.9 -10.3°
Drops below altitude 10° 18:10:33 10° 6° (N) 2,032 5.0 -11.1°
Sets 18:12:48 0° 360° (N) 2,933 5.9 -11.6°
